Change the Weather History Date:

Friday, October 5, 2012

  Actual Average (KGHW) Record (KGHW)
Temperature  
Mean Temperature 34 °F -  
Max Temperature 37 °F 64 °F 86 °F (2011)
Min Temperature 30 °F 39 °F 20 °F (1952)
Degree Days  
Heating Degree Days 32    
Moisture  
Dew Point 27 °F    
Average Humidity 74    
Maximum Humidity 87    
Minimum Humidity 60    
Precipitation  
Precipitation 0.00 in - - ()
Sea Level Pressure  
Sea Level Pressure 30.15 in    
Wind  
Wind Speed 17 mph (WNW)    
Max Wind Speed 25 mph    
Max Gust Speed 34 mph    
Visibility 10 miles    
Events      
Averages and records for this station are not official NWS values.
T = Trace of Precipitation, MM = Missing Value Source: NWS Daily Summary

Daily Weather History Graph

Daily Weather History Graph

Search for Another Location

Airport or City:

Trip Planner

Search our weather history database for the weather conditions in past years. The results will help you decide how hot, cold, wet, or windy it might be!

Date:

Astronomy

Oct. 05, 2012 Rise Set
Actual Time 7:23 AM CDT 6:51 PM CDT
Civil Twilight 6:54 AM CDT 7:20 PM CDT
Nautical Twilight 6:19 AM CDT 7:55 PM CDT
Astronomical Twilight 5:44 AM CDT 8:30 PM CDT
Moon 10:01 PM CDT (10/5) 12:46 PM CDT (10/5)
Length of Visible Light 12h 26m
Length of Day
11h 27m
Waning Gibbous, 74% of the Moon is Illuminated
Oct 5
Waning Gibbous
Oct 8
Last Quarter
Oct 15
New
Oct 21
First Quarter
Oct 29
Full

Hourly Weather History & Observations

Time (CDT) Temp. Windchill Dew Point Humidity Pressure Visibility Wind Dir Wind Speed Gust Speed Precip Events Conditions
12:15 AM 37.4 °F 28.2 °F 30.2 °F 75% 30.14 in 10.0 mi West 16.1 mph 24.2 mph N/A   Overcast
12:35 AM 35.6 °F 24.8 °F 28.4 °F 75% 30.14 in 10.0 mi WNW 19.6 mph 26.5 mph N/A   Overcast
12:55 AM 35.6 °F 26.2 °F 28.4 °F 75% 30.15 in 10.0 mi West 15.0 mph 21.9 mph N/A   Overcast
1:15 AM 35.6 °F 24.2 °F 28.4 °F 75% 30.15 in 10.0 mi West 21.9 mph 26.5 mph N/A   Overcast
1:35 AM 35.6 °F 24.5 °F 28.4 °F 75% 30.15 in 10.0 mi West 20.7 mph 32.2 mph N/A   Overcast
1:55 AM 35.6 °F 24.5 °F 26.6 °F 70% 30.16 in 10.0 mi West 20.7 mph 26.5 mph N/A   Overcast
2:15 AM 33.8 °F 25.3 °F 28.4 °F 81% 30.15 in 10.0 mi West 11.5 mph 24.2 mph N/A   Overcast
2:35 AM 33.8 °F 24.8 °F 26.6 °F 75% 30.15 in 10.0 mi West 12.7 mph 19.6 mph N/A   Mostly Cloudy
2:55 AM 33.8 °F 24.3 °F 26.6 °F 75% 30.14 in 10.0 mi West 13.8 mph 19.6 mph N/A   Mostly Cloudy
3:15 AM 33.8 °F 24.3 °F 26.6 °F 75% 30.13 in 10.0 mi WNW 13.8 mph 17.3 mph N/A   Overcast
3:35 AM 33.8 °F 24.8 °F 26.6 °F 75% 30.13 in 10.0 mi West 12.7 mph 23.0 mph N/A   Overcast
3:55 AM 33.8 °F 24.3 °F 26.6 °F 75% 30.12 in 10.0 mi West 13.8 mph 21.9 mph N/A   Mostly Cloudy
4:15 AM 32.0 °F 23.6 °F 26.6 °F 80% 30.12 in 10.0 mi West 10.4 mph - N/A   Scattered Clouds
4:55 AM 32.0 °F 22.1 °F 26.6 °F 80% 30.12 in 10.0 mi West 13.8 mph - N/A   Clear
5:15 AM 32.0 °F 23.0 °F 26.6 °F 80% 30.13 in 10.0 mi West 11.5 mph 18.4 mph N/A   Clear
5:55 AM 32.0 °F 22.5 °F 26.6 °F 80% 30.13 in 10.0 mi West 12.7 mph 19.6 mph N/A   Clear
6:15 AM 32.0 °F 22.1 °F 26.6 °F 80% 30.13 in 10.0 mi West 13.8 mph - N/A   Clear
6:35 AM 30.2 °F 19.3 °F 26.6 °F 86% 30.12 in 10.0 mi West 15.0 mph 19.6 mph N/A   Scattered Clouds
6:55 AM 30.2 °F 19.3 °F 26.6 °F 86% 30.13 in 10.0 mi West 15.0 mph 21.9 mph N/A   Scattered Clouds
7:15 AM 30.2 °F 18.9 °F 26.6 °F 86% 30.12 in 10.0 mi West 16.1 mph 23.0 mph N/A   Overcast
7:35 AM 30.2 °F 20.2 °F 26.6 °F 86% 30.13 in 10.0 mi West 12.7 mph 21.9 mph N/A   Overcast
7:55 AM 32.0 °F 21.2 °F 26.6 °F 80% 30.13 in 10.0 mi West 16.1 mph 24.2 mph N/A   Overcast
8:15 AM 32.0 °F 22.1 °F 26.6 °F 80% 30.13 in 10.0 mi West 13.8 mph - N/A   Overcast
8:35 AM 32.0 °F 22.1 °F 26.6 °F 80% 30.14 in 10.0 mi West 13.8 mph 20.7 mph N/A   Overcast
8:55 AM 32.0 °F 22.1 °F 26.6 °F 80% 30.14 in 10.0 mi West 13.8 mph 21.9 mph N/A   Overcast
9:15 AM 32.0 °F 22.1 °F 26.6 °F 80% 30.14 in 10.0 mi West 13.8 mph 23.0 mph N/A   Overcast
9:35 AM 32.0 °F 21.2 °F 26.6 °F 80% 30.15 in 10.0 mi West 16.1 mph 25.3 mph N/A   Overcast
9:55 AM 32.0 °F 21.2 °F 26.6 °F 80% 30.15 in 10.0 mi West 16.1 mph 23.0 mph N/A   Overcast
10:15 AM 33.8 °F 21.9 °F 26.6 °F 75% 30.16 in 10.0 mi WNW 21.9 mph 25.3 mph N/A   Overcast
10:35 AM 33.8 °F 21.0 °F 26.6 °F 75% 30.16 in 10.0 mi WNW 25.3 mph 29.9 mph N/A   Overcast
10:55 AM 33.8 °F 22.8 °F 26.6 °F 75% 30.16 in 10.0 mi WNW 18.4 mph 33.4 mph N/A   Overcast
11:15 AM 35.6 °F 23.7 °F 26.6 °F 70% 30.15 in 10.0 mi WNW 24.2 mph 34.5 mph N/A   Overcast
11:35 AM 35.6 °F 24.2 °F 26.6 °F 70% 30.14 in 10.0 mi WNW 21.9 mph 29.9 mph N/A   Overcast
11:55 AM 35.6 °F 24.2 °F 26.6 °F 70% 30.15 in 10.0 mi West 21.9 mph 31.1 mph N/A   Overcast
12:15 PM 37.4 °F 26.6 °F 26.6 °F 65% 30.14 in 10.0 mi WNW 21.9 mph 27.6 mph N/A   Overcast
12:55 PM 37.4 °F 27.2 °F 26.6 °F 65% 30.14 in 10.0 mi WNW 19.6 mph 28.8 mph N/A   Overcast
1:15 PM 37.4 °F 27.2 °F 24.8 °F 60% 30.14 in 10.0 mi WNW 19.6 mph 31.1 mph N/A   Overcast
1:35 PM 37.4 °F 26.4 °F 24.8 °F 60% 30.14 in 10.0 mi WNW 23.0 mph 31.1 mph N/A   Overcast
1:55 PM 37.4 °F 26.6 °F 24.8 °F 60% 30.14 in 10.0 mi WNW 21.9 mph 29.9 mph N/A   Overcast
2:15 PM 37.4 °F 26.6 °F 24.8 °F 60% 30.14 in 10.0 mi WNW 21.9 mph 29.9 mph N/A   Overcast
2:35 PM 37.4 °F 27.5 °F 24.8 °F 60% 30.14 in 10.0 mi West 18.4 mph 31.1 mph N/A   Overcast
2:55 PM 37.4 °F 26.9 °F 24.8 °F 60% 30.14 in 10.0 mi WNW 20.7 mph 28.8 mph N/A   Overcast
3:15 PM 37.4 °F 27.2 °F 24.8 °F 60% 30.14 in 10.0 mi West 19.6 mph 29.9 mph N/A   Overcast
3:35 PM 37.4 °F 27.2 °F 24.8 °F 60% 30.14 in 10.0 mi WNW 19.6 mph 27.6 mph N/A   Overcast
3:55 PM 37.4 °F 26.9 °F 24.8 °F 60% 30.14 in 10.0 mi WNW 20.7 mph 27.6 mph N/A   Overcast
4:15 PM 37.4 °F 27.8 °F 24.8 °F 60% 30.14 in 10.0 mi West 17.3 mph 28.8 mph N/A   Overcast
4:35 PM 37.4 °F 26.9 °F 24.8 °F 60% 30.14 in 10.0 mi WNW 20.7 mph 29.9 mph N/A   Overcast
4:55 PM 37.4 °F 27.2 °F 24.8 °F 60% 30.14 in 10.0 mi WNW 19.6 mph 26.5 mph N/A   Overcast
5:15 PM 37.4 °F 27.8 °F 26.6 °F 65% 30.14 in 10.0 mi WNW 17.3 mph 28.8 mph N/A   Overcast
5:35 PM 37.4 °F 27.8 °F 26.6 °F 65% 30.14 in 10.0 mi WNW 17.3 mph 24.2 mph N/A   Overcast
5:55 PM 37.4 °F 28.2 °F 26.6 °F 65% 30.14 in 10.0 mi WNW 16.1 mph 21.9 mph N/A   Overcast
6:15 PM 37.4 °F 26.4 °F 26.6 °F 65% 30.15 in 10.0 mi WNW 23.0 mph 32.2 mph N/A   Overcast
6:35 PM 35.6 °F 25.5 °F 26.6 °F 70% 30.15 in 10.0 mi WNW 17.3 mph 26.5 mph N/A   Overcast
7:15 PM 35.6 °F 24.8 °F 26.6 °F 70% 30.16 in 10.0 mi WNW 19.6 mph 27.6 mph N/A   Scattered Clouds
7:35 PM 35.6 °F 24.8 °F 26.6 °F 70% 30.17 in 10.0 mi WNW 19.6 mph 26.5 mph N/A   Mostly Cloudy
7:55 PM 33.8 °F 23.2 °F 26.6 °F 75% 30.17 in 10.0 mi WNW 17.3 mph 24.2 mph N/A   Mostly Cloudy
8:15 PM 33.8 °F 24.8 °F 26.6 °F 75% 30.17 in 10.0 mi WNW 12.7 mph - N/A   Scattered Clouds
8:35 PM 33.8 °F 23.2 °F 26.6 °F 75% 30.17 in 10.0 mi WNW 17.3 mph - N/A   Mostly Cloudy
8:55 PM 33.8 °F 23.5 °F 26.6 °F 75% 30.18 in 10.0 mi WNW 16.1 mph 19.6 mph N/A   Overcast
9:15 PM 33.8 °F 23.9 °F 28.4 °F 81% 30.18 in 10.0 mi WNW 15.0 mph 18.4 mph N/A   Overcast
9:35 PM 33.8 °F 23.9 °F 28.4 °F 81% 30.18 in 10.0 mi WNW 15.0 mph 19.6 mph N/A   Overcast
9:55 PM 33.8 °F 25.3 °F 30.2 °F 87% 30.18 in 10.0 mi WNW 11.5 mph - N/A   Overcast
10:15 PM 32.0 °F 22.1 °F 28.4 °F 87% 30.19 in 10.0 mi WNW 13.8 mph - N/A   Mostly Cloudy
10:35 PM 32.0 °F 22.5 °F 28.4 °F 87% 30.18 in 10.0 mi WNW 12.7 mph - N/A   Scattered Clouds
10:55 PM 32.0 °F 22.5 °F 28.4 °F 87% 30.18 in 10.0 mi WNW 12.7 mph 16.1 mph N/A   Mostly Cloudy
11:15 PM 33.8 °F 23.5 °F 28.4 °F 81% 30.18 in 10.0 mi NW 16.1 mph 23.0 mph N/A   Overcast
11:35 PM 33.8 °F 23.5 °F 28.4 °F 81% 30.18 in 10.0 mi WNW 16.1 mph 20.7 mph N/A   Overcast
11:55 PM 33.8 °F 24.8 °F 28.4 °F 81% 30.18 in 10.0 mi WNW 12.7 mph 18.4 mph N/A   Overcast